[[{"header":{"parameterUnit":"m.s-1","parameterCategory":1,"la1":30.2991,"la2":30.254,"lo1":-89.0895,"lo2":-89.0444,"dy":0.0017,"dx":0.0017,"nx":28,"ny":28,"refTime":"2025-07-18T03:00:00:Z","depth":0,"parameterNumber":2,"parameterNumberName":"U-component_of_WINDS"},"data":[0,0,0,0,0,0,0,0,0,0,0,0,0,0,0,0,0,0,0,0,0,0,0,0,0,0,0,0,0,0,0,0,0,0,0,0,0,0,0,0,0,0,0,0,0,0,0,0,0,0,0,0,0,0,0,0,0,0,1.3895,1.3896,0,1.3921,1.3922,1.3922,1.3905,1.3904,1.3903,1.3902,1.3932,1.3933,1.3935,0,0,0,0,0,0,0,0,0,0,0,0,0,1.3833,1.3834,1.3895,1.3896,1.3896,1.3921,1.3922,1.3922,1.3905,1.3904,1.3903,1.3902,1.3931,1.3933,1.3935,0,0,0,0,0,0,0,0,0,0,0,0,0,1.3859,1.3834,1.3895,1.389,1.389,1.3921,1.3922,1.3922,1.3905,1.3904,1.3903,1.3901,1.3931,1.3933,1.3935,1.3973,0,0,1.3942,1.3943,0,0,0,0,0,0,0,0,1.3858,1.3862,1.3891,1.3891,1.3891,1.3908,1.391,1.3939,1.3905,1.3899,1.3902,1.3901,1.3925,1.3928,1.3935,1.3975,1.3976,1.3942,1.3944,1.3945,1.3945,0,0,0,0,0,0,0,1.3856,1.3861,1.3906,1.3891,1.3891,1.3887,1.389,1.3916,1.3919,1.39,1.3899,1.3902,1.3925,1.3933,1.3936,1.3976,1.3942,1.3944,1.3946,1.3947,1.4048,1.4049,0,0,0,0,0,0,1.3854,1.3859,1.3905,1.3906,1.3871,1.389,1.3892,1.3904,1.3918,1.3919,1.3903,1.3901,1.393,1.3933,1.3937,1.3982,1.3945,1.3947,1.3948,1.4046,1.4048,1.4049,0,0,0,0,0,0,1.3853,1.3859,1.3904,1.3882,1.3888,1.3892,1.3905,1.3905,1.3913,1.3921,1.3921,1.3911,1.3929,1.3934,1.3964,1.3983,1.3948,1.395,1.4045,1.4047,1.4049,1.4072,0,0,0,0,0,0,1.3851,1.3858,1.3872,1.3883,1.3889,1.393,1.3906,1.3907,1.3917,1.3915,1.3928,1.3929,1.3928,1.3961,1.3966,1.3985,1.3952,1.4043,1.4046,1.4048,1.407,1.4075,1.4079,0,0,0,0,0,1.3849,1.3879,1.3873,1.3879,1.3907,1.3931,1.3935,1.3932,1.3919,1.3933,1.3938,1.3929,1.398,1.3964,1.397,1.399,1.4042,1.4045,1.4048,1.4068,1.4074,1.4079,0,0,0,0,0,0,1.3871,1.388,1.3874,1.3908,1.3919,1.3928,1.3946,1.3939,1.3955,1.3952,1.3949,1.3953,1.3984,1.399,1.3972,1.4027,1.4009,1.4013,1.4022,1.4028,1.4032,1.403,1.3954,0,0,0,0,0,1.388,1.3898,1.3905,1.3934,1.394,1.3942,1.3953,1.395,1.3961,1.3966,1.3973,1.3985,1.4004,1.4016,1.4034,1.4071,1.4073,1.4088,1.4092,1.4096,1.41,1.4119,1.4125,1.4059,1.4059,1.4059,0,0,1.3898,1.3905,1.3917,1.3939,1.3947,1.3966,1.3946,1.3968,1.3982,1.397,1.3998,1.4004,1.4017,1.4051,1.4066,1.4057,1.4118,1.41,1.4103,1.4104,1.4122,1.4129,1.4134,1.4061,1.4061,1.406,0,0,1.3941,1.3949,1.3973,1.3981,1.3993,1.3995,1.4001,1.4011,1.4014,1.4042,1.4033,1.4051,1.4083,1.4093,1.4102,1.4148,1.414,1.4154,1.4178,1.4197,1.4202,1.4206,1.4222,1.4228,1.4158,1.4158,1.4158,0,1.3962,1.399,1.3987,1.4008,1.4018,1.4007,1.4032,1.4041,1.4058,1.4066,1.4055,1.4095,1.4103,1.4138,1.415,1.4158,1.4164,1.4152,1.4201,1.4206,1.421,1.4225,1.4231,1.416,1.4159,1.4159,1.4159,0,1.4015,1.4035,1.4053,1.4069,1.4081,1.4105,1.4105,1.4118,1.4114,1.4117,1.4146,1.4155,1.4174,1.4183,1.418,1.4218,1.4211,1.4201,1.4182,1.4218,1.4232,1.4237,1.4162,1.4161,1.4161,1.416,0,0,1.4072,1.4086,1.4092,1.4099,1.4112,1.4127,1.415,1.4168,1.4178,1.4191,1.421,1.4238,1.4228,1.4239,1.4237,1.4253,1.4288,1.4241,1.4241,1.4249,1.4329,1.4336,1.4342,1.4284,1.4285,1.4286,1.4328,0,1.4115,1.4153,1.4151,1.4187,1.4205,1.4195,1.4215,1.4225,1.4228,1.4244,1.4248,1.4267,1.4254,1.426,1.4276,1.4281,1.4304,1.4278,1.4301,1.4302,1.4297,1.435,1.4357,1.4396,1.4333,1.4334,1.4335,0,1.417,1.4183,1.4221,1.423,1.4237,1.4255,1.427,1.4286,1.4297,1.4298,1.431,1.4305,1.4329,1.431,1.4343,1.4325,1.4334,1.4338,1.434,1.4341,1.432,1.4351,1.4409,1.4414,1.4344,1.4343,1.4342,0,1.4206,1.4233,1.4259,1.4265,1.4277,1.429,1.4295,1.4305,1.4316,1.433,1.4337,1.4354,1.4363,1.4377,1.4377,1.4364,1.441,1.4392,1.4411,1.4411,1.4421,1.442,1.4479,1.4429,1.4429,1.4429,1.4429,0,1.4253,1.4276,1.4275,1.4291,1.4317,1.4314,1.434,1.4345,1.4354,1.4371,1.4364,1.438,1.438,1.4397,1.4398,1.4424,1.4429,1.4431,1.443,1.443,1.443,1.4436,1.4433,1.443,1.443,1.443,1.443,0,1.4297,1.4297,1.4325,1.4333,1.4336,1.4355,1.4362,1.4377,1.438,1.4401,1.4406,1.441,1.443,1.4432,1.4455,1.4455,1.4487,1.4484,1.4482,1.4481,1.4501,1.4498,1.4565,1.4573,1.4519,1.4519,1.452,0,1.4326,1.4343,1.4353,1.4364,1.437,1.4387,1.4397,1.4395,1.4406,1.4421,1.4434,1.4453,1.4467,1.4499,1.4504,1.4522,1.4519,1.4541,1.4521,1.4521,1.4518,1.4516,1.4517,1.4544,1.4545,1.4545,1.4546,0,1.4377,1.4377,1.4391,1.4406,1.4418,1.443,1.4441,1.445,1.445,1.4463,1.4482,1.4493,1.4516,1.4534,1.4551,1.4558,1.4552,1.4552,1.4557,1.4557,1.4555,1.4555,1.4491,1.455,1.455,1.4549,1.4549,1.4549,1.4414,1.4429,1.4438,1.4454,1.4462,1.4472,1.4487,1.4491,1.4506,1.4523,1.4522,1.4543,1.4554,1.4576,1.4584,1.4601,1.4594,1.4602,1.4603,1.4605,1.4606,1.4553,1.4604,1.4604,1.4604,1.4604,1.4604,0,1.4464,1.4469,1.4484,1.4499,1.4512,1.4505,1.4516,1.4528,1.4546,1.4556,1.457,1.4592,1.461,1.4617,1.4634,1.4646,1.4644,1.4651,1.4649,1.4651,1.4612,1.4605,1.4652,1.4652,1.4652,1.4652,1.4652,1.4652,1.4491,1.4515,1.4516,1.4544,1.4549,1.4568,1.4575,1.4585,1.4593,1.4617,1.4631,1.4636,1.4645,1.4663,1.4679,1.468,1.4687,1.4695,1.4695,1.4659,1.4654,1.4649,1.4642,1.4696,1.4696,1.4732,1.4732,1.4732]},{"header":{"parameterUnit":"m.s-1","parameterCategory":1,"la1":30.2991,"la2":30.254,"lo1":-89.0895,"lo2":-89.0444,"dy":0.0017,"dx":0.0017,"nx":28,"ny":28,"refTime":"2025-07-18T03:00:00:Z","depth":0,"parameterNumber":3,"parameterNumberName":"V-component_of_WINDS"},"data":[0,0,0,0,0,0,0,0,0,0,0,0,0,0,0,0,0,0,0,0,0,0,0,0,0,0,0,0,0,0,0,0,0,0,0,0,0,0,0,0,0,0,0,0,0,0,0,0,0,0,0,0,0,0,0,0,0,0,3.887,3.887,0,3.8898,3.8898,3.8899,3.8876,3.8875,3.8875,3.8874,3.8899,3.89,3.8902,0,0,0,0,0,0,0,0,0,0,0,0,0,3.8794,3.8795,3.887,3.887,3.8871,3.8898,3.8898,3.8899,3.8877,3.8875,3.8874,3.8873,3.8898,3.89,3.8902,0,0,0,0,0,0,0,0,0,0,0,0,0,3.8825,3.8796,3.887,3.8863,3.8863,3.8898,3.8898,3.8899,3.8877,3.8875,3.8874,3.8873,3.8898,3.89,3.8902,3.8945,0,0,3.8909,3.891,0,0,0,0,0,0,0,0,3.8823,3.8828,3.8864,3.8864,3.8863,3.8882,3.8881,3.8914,3.8877,3.8871,3.8874,3.8872,3.8894,3.8897,3.8905,3.8946,3.8947,3.891,3.8911,3.8912,3.8913,0,0,0,0,0,0,0,3.8821,3.8826,3.8881,3.8864,3.8864,3.8857,3.886,3.8887,3.889,3.8872,3.887,3.8874,3.8894,3.8903,3.8905,3.8947,3.8909,3.8912,3.8913,3.8914,3.9023,3.9025,0,0,0,0,0,0,3.882,3.8825,3.888,3.8882,3.8839,3.886,3.8863,3.8878,3.889,3.8891,3.8875,3.8873,3.89,3.8903,3.8906,3.8956,3.8912,3.8914,3.8915,3.9022,3.9023,3.9025,0,0,0,0,0,0,3.8818,3.8825,3.8879,3.8853,3.8859,3.8863,3.8879,3.8879,3.8888,3.8893,3.8893,3.8884,3.8899,3.8903,3.8935,3.8957,3.8915,3.8917,3.902,3.9022,3.9024,3.9057,0,0,0,0,0,0,3.8816,3.8825,3.8842,3.8853,3.8861,3.8909,3.8881,3.888,3.8892,3.889,3.8901,3.8901,3.8898,3.8932,3.8938,3.8959,3.8919,3.9018,3.9021,3.9024,3.9054,3.906,3.9065,0,0,0,0,0,3.8814,3.8849,3.8843,3.885,3.8882,3.891,3.8914,3.891,3.8894,3.8911,3.8913,3.8901,3.8953,3.8935,3.8942,3.8964,3.9016,3.902,3.9023,3.9051,3.9058,3.9065,0,0,0,0,0,0,3.8839,3.8851,3.8844,3.8884,3.8897,3.8906,3.8927,3.8918,3.8935,3.8931,3.8925,3.8927,3.8961,3.8966,3.8946,3.9005,3.8982,3.8987,3.9001,3.9008,3.9014,3.9012,3.8921,0,0,0,0,0,3.8849,3.8872,3.8881,3.8916,3.8922,3.8924,3.8936,3.8932,3.8944,3.8948,3.8954,3.8965,3.8984,3.8996,3.9014,3.9054,3.9056,3.9073,3.9078,3.9083,3.9087,3.9108,3.9115,3.9036,3.9036,3.9036,0,0,3.8871,3.888,3.8895,3.8921,3.893,3.8952,3.8928,3.8953,3.8969,3.8952,3.8983,3.8987,3.8999,3.9035,3.9051,3.904,3.9109,3.9087,3.9091,3.9092,3.9112,3.912,3.9126,3.9039,3.9038,3.9038,0,0,3.8921,3.8931,3.8961,3.8971,3.8985,3.8986,3.8993,3.9004,3.9007,3.9038,3.9025,3.9044,3.9077,3.9086,3.9094,3.9148,3.9137,3.9154,3.9183,3.9204,3.921,3.9215,3.9234,3.9241,3.9158,3.9158,3.9158,0,3.8946,3.8981,3.8977,3.9003,3.9015,3.9001,3.903,3.9039,3.9058,3.9066,3.9053,3.9094,3.9101,3.9139,3.9152,3.916,3.9167,3.9152,3.921,3.9215,3.922,3.9238,3.9245,3.916,3.916,3.916,3.9159,0,3.901,3.9034,3.9056,3.9076,3.909,3.9118,3.9117,3.9131,3.9126,3.9128,3.9159,3.9167,3.9186,3.9195,3.9189,3.9232,3.9224,3.9211,3.9187,3.923,3.9246,3.9253,3.9163,3.9162,3.9161,3.9161,0,0,3.9077,3.9095,3.9103,3.9112,3.9126,3.9144,3.9171,3.919,3.9202,3.9215,3.9237,3.9265,3.9252,3.9262,3.9258,3.9276,3.9317,3.926,3.926,3.927,3.9364,3.9374,3.9382,3.931,3.9311,3.9312,3.9363,0,3.9128,3.9176,3.9173,3.9217,3.9239,3.9226,3.9249,3.9259,3.9262,3.9279,3.9281,3.9301,3.9283,3.9289,3.9307,3.9309,3.9336,3.9305,3.9329,3.933,3.9326,3.9391,3.9402,3.9449,3.9369,3.937,3.9371,0,3.9195,3.9211,3.9258,3.9269,3.9278,3.9299,3.9316,3.9333,3.9345,3.9345,3.9356,3.9349,3.9374,3.935,3.9385,3.9364,3.9373,3.9376,3.9378,3.938,3.9353,3.9394,3.9464,3.9471,3.9381,3.9381,3.938,0,3.9239,3.9272,3.9305,3.9312,3.9326,3.9341,3.9347,3.9357,3.9369,3.9384,3.9391,3.9408,3.9418,3.9431,3.9427,3.9411,3.9462,3.9439,3.9463,3.9463,3.9474,3.9473,3.9546,3.9481,3.9481,3.948,3.948,0,3.9296,3.9325,3.9325,3.9344,3.9376,3.9372,3.9403,3.9407,3.9416,3.9436,3.9425,3.9443,3.9438,3.9456,3.9453,3.9482,3.9486,3.9486,3.9485,3.9487,3.9487,3.9493,3.949,3.9482,3.9482,3.9481,3.9481,0,3.935,3.9352,3.9386,3.9396,3.9399,3.9422,3.943,3.9448,3.945,3.9474,3.948,3.9481,3.9502,3.95,3.9522,3.952,3.9556,3.9551,3.9552,3.9551,3.9575,3.9573,3.9654,3.9664,3.9593,3.9593,3.9594,0,3.9387,3.9409,3.9422,3.9435,3.9442,3.9463,3.9475,3.9471,3.9484,3.9499,3.9515,3.9534,3.955,3.9582,3.9585,3.9602,3.9597,3.9624,3.9599,3.9601,3.9597,3.9596,3.9597,3.9629,3.963,3.9631,3.9631,0,3.9451,3.945,3.9469,3.9488,3.9503,3.9517,3.953,3.9541,3.9538,3.9553,3.9574,3.9586,3.961,3.9629,3.9645,3.965,3.964,3.9639,3.9645,3.9647,3.9647,3.9647,3.9566,3.9637,3.9636,3.9636,3.9636,3.9635,3.9497,3.9516,3.9528,3.9549,3.9558,3.9571,3.9588,3.9592,3.961,3.9629,3.9626,3.9649,3.9659,3.968,3.9687,3.9704,3.9694,3.9704,3.9706,3.9708,3.9711,3.9645,3.9707,3.9707,3.9707,3.9707,3.9707,0,3.956,3.9568,3.9587,3.9606,3.9622,3.9612,3.9626,3.964,3.9661,3.9672,3.9687,3.9711,3.973,3.9734,3.9751,3.9764,3.976,3.9769,3.9768,3.9769,3.9719,3.9712,3.9772,3.9772,3.9772,3.9772,3.9772,3.9772,3.9595,3.9626,3.9627,3.9663,3.9669,3.9693,3.9702,3.9713,3.9721,3.9749,3.9765,3.9767,3.9775,3.9793,3.9809,3.981,3.9817,3.9827,3.9826,3.9779,3.9773,3.9766,3.9759,3.9829,3.9829,3.9874,3.9875,3.9875]}]]